Météo par heure à Julianow

Ce jour, 16 Juin, Mercredi

Heure Température Précipitation Vent Pression Humidité
00:00 +16°C° 0 mm 1 m/s 745 mmHg 73%
01:00 +15°C° 0 mm 0 m/s 745 mmHg 72%
02:00 +16°C° 0 mm 1 m/s 745 mmHg 73%
03:00 +16°C° 0 mm 1 m/s 745 mmHg 73%
04:00 +16°C° 0 mm 1 m/s 745 mmHg 74%
05:00 +19°C° 0 mm 1 m/s 745 mmHg 72%
06:00 +19°C° 0 mm 2 m/s 746 mmHg 71%
07:00 +20°C° 0 mm 2 m/s 746 mmHg 69%
08:00 +21°C° 0.4 mm 2 m/s 746 mmHg 67%
09:00 +24°C° 0.4 mm 1 m/s 746 mmHg 65%
10:00 +25°C° 0.4 mm 1 m/s 746 mmHg 63%
11:00 +25°C° 0.4 mm 1 m/s 746 mmHg 61%
12:00 +26°C° 0.4 mm 1 m/s 746 mmHg 58%
13:00 +26°C° 0 mm 2 m/s 746 mmHg 55%
14:00 +26°C° 0.6 mm 2 m/s 746 mmHg 59%
15:00 +25°C° 0.6 mm 3 m/s 746 mmHg 63%
16:00 +25°C° 0.6 mm 3 m/s 746 mmHg 67%
17:00 +24°C° 0.4 mm 3 m/s 746 mmHg 73%
18:00 +21°C° 0.4 mm 3 m/s 746 mmHg 79%
19:00 +20°C° 0.4 mm 2 m/s 746 mmHg 85%
20:00 +19°C° 0 mm 2 m/s 746 mmHg 88%
21:00 +18°C° 0 mm 2 m/s 747 mmHg 90%
22:00 +17°C° 0 mm 2 m/s 747 mmHg 93%
23:00 +16°C° 0 mm 2 m/s 747 mmHg 93%

Demain, 17 Juin, Jeudi

Heure Température Précipitation Vent Pression Humidité
00:00 +16°C° 0 mm 2 m/s 747 mmHg 93%
01:00 +15°C° 0 mm 2 m/s 747 mmHg 94%
02:00 +15°C° 0 mm 2 m/s 747 mmHg 94%
03:00 +15°C° 0 mm 2 m/s 747 mmHg 94%
04:00 +15°C° 0 mm 1 m/s 747 mmHg 94%
05:00 +16°C° 0 mm 2 m/s 747 mmHg 88%
06:00 +18°C° 0 mm 2 m/s 748 mmHg 83%
07:00 +20°C° 0 mm 3 m/s 748 mmHg 78%
08:00 +21°C° 0 mm 3 m/s 748 mmHg 71%
09:00 +22°C° 0 mm 3 m/s 748 mmHg 65%
10:00 +25°C° 0 mm 3 m/s 749 mmHg 58%
11:00 +25°C° 0 mm 3 m/s 748 mmHg 54%
12:00 +26°C° 0 mm 3 m/s 748 mmHg 50%
13:00 +27°C° 0 mm 3 m/s 748 mmHg 46%
14:00 +27°C° 0 mm 3 m/s 748 mmHg 47%
15:00 +26°C° 0 mm 4 m/s 748 mmHg 48%
16:00 +26°C° 0 mm 4 m/s 748 mmHg 49%
17:00 +25°C° 0 mm 4 m/s 748 mmHg 57%
18:00 +22°C° 0 mm 3 m/s 748 mmHg 65%
19:00 +20°C° 0 mm 3 m/s 748 mmHg 72%
20:00 +19°C° 0 mm 3 m/s 748 mmHg 76%
21:00 +18°C° 0 mm 2 m/s 748 mmHg 80%
22:00 +17°C° 0 mm 2 m/s 748 mmHg 84%
23:00 +17°C° 0 mm 2 m/s 748 mmHg 87%

Après-demain, 18 Juin, Vendredi

Heure Température Précipitation Vent Pression Humidité
00:00 +17°C° 0 mm 2 m/s 748 mmHg 89%
01:00 +17°C° 0 mm 2 m/s 748 mmHg 91%
02:00 +16°C° 0 mm 2 m/s 748 mmHg 92%
03:00 +16°C° 0 mm 2 m/s 748 mmHg 92%
04:00 +16°C° 0 mm 2 m/s 748 mmHg 92%
05:00 +18°C° 0 mm 3 m/s 748 mmHg 86%
06:00 +20°C° 0 mm 4 m/s 748 mmHg 79%
07:00 +22°C° 0 mm 4 m/s 748 mmHg 72%
08:00 +25°C° 0 mm 5 m/s 748 mmHg 66%
09:00 +26°C° 0 mm 5 m/s 748 mmHg 60%
10:00 +27°C° 0 mm 5 m/s 748 mmHg 54%
11:00 +28°C° 0 mm 5 m/s 748 mmHg 52%
12:00 +29°C° 0 mm 5 m/s 747 mmHg 51%
13:00 +29°C° 0 mm 5 m/s 747 mmHg 49%
14:00 +29°C° 0 mm 5 m/s 747 mmHg 51%
15:00 +29°C° 0 mm 5 m/s 747 mmHg 53%
16:00 +29°C° 0 mm 5 m/s 747 mmHg 55%
17:00 +27°C° 0 mm 4 m/s 747 mmHg 61%
18:00 +25°C° 0 mm 4 m/s 747 mmHg 68%
19:00 +23°C° 0 mm 4 m/s 747 mmHg 75%
20:00 +21°C° 0 mm 4 m/s 747 mmHg 80%
21:00 +20°C° 0 mm 3 m/s 747 mmHg 85%
22:00 +19°C° 0 mm 3 m/s 747 mmHg 89%
23:00 +18°C° 0 mm 3 m/s 747 mmHg 91%

19 Juin, Samedi

Heure Température Précipitation Vent Pression Humidité
00:00 +18°C° 0 mm 3 m/s 746 mmHg 93%
01:00 +18°C° 0 mm 3 m/s 746 mmHg 94%
02:00 +18°C° 0 mm 3 m/s 746 mmHg 95%
03:00 +18°C° 0 mm 3 m/s 746 mmHg 95%
04:00 +18°C° 0 mm 3 m/s 746 mmHg 95%
05:00 +19°C° 0 mm 4 m/s 746 mmHg 88%
06:00 +21°C° 0 mm 4 m/s 747 mmHg 81%
07:00 +23°C° 0 mm 5 m/s 747 mmHg 74%
08:00 +25°C° 0 mm 5 m/s 746 mmHg 69%
09:00 +27°C° 0 mm 5 m/s 746 mmHg 63%
10:00 +28°C° 0 mm 6 m/s 746 mmHg 58%
11:00 +29°C° 0 mm 5 m/s 746 mmHg 56%
12:00 +29°C° 0 mm 5 m/s 746 mmHg 54%
13:00 +30°C° 0 mm 5 m/s 746 mmHg 51%
14:00 +30°C° 0 mm 5 m/s 745 mmHg 52%
15:00 +30°C° 0 mm 5 m/s 745 mmHg 53%
16:00 +30°C° 0 mm 5 m/s 745 mmHg 54%
17:00 +28°C° 0 mm 4 m/s 745 mmHg 62%
18:00 +26°C° 0 mm 4 m/s 745 mmHg 69%
19:00 +25°C° 0 mm 4 m/s 745 mmHg 76%
20:00 +22°C° 0 mm 4 m/s 745 mmHg 81%
21:00 +21°C° 0 mm 3 m/s 745 mmHg 86%
22:00 +19°C° 0 mm 3 m/s 745 mmHg 91%
23:00 +19°C° 0 mm 2 m/s 745 mmHg 92%

20 Juin, Dimanche

Heure Température Précipitation Vent Pression Humidité
00:00 +18°C° 0 mm 2 m/s 745 mmHg 93%
01:00 +18°C° 0 mm 2 m/s 745 mmHg 94%
02:00 +18°C° 0 mm 2 m/s 745 mmHg 95%
03:00 +17°C° 0 mm 2 m/s 745 mmHg 95%
04:00 +17°C° 0 mm 2 m/s 745 mmHg 96%
05:00 +19°C° 0 mm 3 m/s 745 mmHg 89%
06:00 +20°C° 0 mm 3 m/s 745 mmHg 82%
07:00 +22°C° 0 mm 4 m/s 745 mmHg 74%
08:00 +25°C° 0 mm 4 m/s 745 mmHg 68%
09:00 +26°C° 0 mm 4 m/s 744 mmHg 62%
10:00 +27°C° 0 mm 4 m/s 744 mmHg 55%
11:00 +28°C° 0 mm 4 m/s 744 mmHg 53%
12:00 +29°C° 0 mm 4 m/s 744 mmHg 50%
13:00 +30°C° 0 mm 4 m/s 744 mmHg 47%
14:00 +30°C° 0 mm 4 m/s 744 mmHg 48%
15:00 +30°C° 0 mm 4 m/s 743 mmHg 48%
16:00 +30°C° 0 mm 3 m/s 743 mmHg 49%
17:00 +28°C° 0 mm 4 m/s 743 mmHg 56%
18:00 +26°C° 0 mm 4 m/s 743 mmHg 64%
19:00 +25°C° 0 mm 4 m/s 743 mmHg 71%
20:00 +24°C° 0 mm 3 m/s 743 mmHg 76%
21:00 +21°C° 0 mm 3 m/s 743 mmHg 81%
22:00 +20°C° 0 mm 3 m/s 743 mmHg 86%
23:00 +20°C° 0 mm 3 m/s 743 mmHg 88%

21 Juin, Lundi

Heure Température Précipitation Vent Pression Humidité
00:00 +19°C° 0 mm 3 m/s 743 mmHg 91%
01:00 +19°C° 0 mm 3 m/s 742 mmHg 93%
02:00 +18°C° 0 mm 3 m/s 742 mmHg 94%
03:00 +18°C° 0 mm 3 m/s 742 mmHg 94%
04:00 +18°C° 0 mm 3 m/s 743 mmHg 95%
05:00 +20°C° 0 mm 3 m/s 743 mmHg 87%
06:00 +22°C° 0 mm 4 m/s 743 mmHg 80%
07:00 +25°C° 0 mm 4 m/s 743 mmHg 73%
08:00 +26°C° 0 mm 5 m/s 743 mmHg 65%
09:00 +27°C° 0 mm 5 m/s 743 mmHg 58%
10:00 +29°C° 0 mm 5 m/s 742 mmHg 50%
11:00 +29°C° 0 mm 5 m/s 742 mmHg 48%
12:00 +30°C° 0 mm 5 m/s 742 mmHg 45%
13:00 +32°C° 0 mm 4 m/s 742 mmHg 43%
14:00 +32°C° 0 mm 4 m/s 742 mmHg 45%
15:00 +30°C° 0 mm 4 m/s 741 mmHg 46%
16:00 +30°C° 0 mm 4 m/s 741 mmHg 48%
17:00 +29°C° 0 mm 4 m/s 741 mmHg 56%
18:00 +27°C° 0 mm 3 m/s 741 mmHg 64%
19:00 +25°C° 0 mm 3 m/s 741 mmHg 72%
20:00 +24°C° 0 mm 3 m/s 741 mmHg 76%
21:00 +23°C° 0 mm 2 m/s 741 mmHg 80%
22:00 +21°C° 0 mm 2 m/s 741 mmHg 84%
23:00 +20°C° 0 mm 2 m/s 741 mmHg 86%
Voir plus

Nous avons besoin de votre consentement

Meteoprog et ses fournisseurs de services peuvent stocker et accéder à des données personnelles telles que des cookies, des identifiants d'appareils ou d'autres technologies similaires sur votre appareil et traiter ces données pour personnaliser le contenu et les publicités, ainsi que pour fournir des fonctionnalités de médias sociaux et analyser le trafic.

  • Stocker et/ou accéder à des informations sur votre appareil

    Des cookies, des identifiants d'appareils ou d'autres informations peuvent être stockés ou accessibles sur votre appareil aux fins indiquées ci-dessus.

  • Annonces et contenus personnalisés, mesure des annonces et des contenus, connaissance de l'audience et développement de produits

    Les annonces et le contenu peuvent être personnalisés en fonction d'un profil. D'autres données peuvent être ajoutées pour mieux personnaliser les annonces et le contenu. Les performances des publicités et du contenu peuvent être mesurées. Il est possible d'obtenir des informations sur le public qui a vu les publicités et le contenu. Ces données peuvent être utilisées pour développer ou améliorer l'expérience de l'utilisateur, les systèmes et les logiciels.

En cliquant sur "J'accepte", vous autorisez l'utilisation de cookies, des identifiants d'appareils, des balises web ou d'autres technologies similaires. Vos paramètres peuvent être modifiés dans le navigateur de votre appareil.

Dans certains cas, des intérêts légitimes peuvent être invoqués plutôt qu'un consentement. Vous pouvez en savoir plus à ce sujet dans notre Politique de confidentialité et de cookies.